This is the latest recevied weather packets stored in our database for station/object WB4YDL. If no packets are shown the sender has not sent any weather packets the latest 10 day(s).
| Time | Temp. | Humidity | Pressure | Rain* | Wind** | Luminosity | Snow |
|---|---|---|---|---|---|---|---|
| 1778007431 | 17.22° C | 99% | 1002.6 hPa | 3.05 mm | - | 174 W/m² | - |
| 1778007127 | 17.22° C | 99% | 1002.9 hPa | 3.05 mm | - | 152 W/m² | - |
| 1778006823 | 17.22° C | 99% | 1002.8 hPa | 1.27 mm | - | 167 W/m² | - |
| 1778006521 | 16.67° C | 99% | 1002.8 hPa | 1.78 mm | - | 121 W/m² | - |
| 1778006217 | 17.22° C | 99% | 1002.7 hPa | 1.78 mm | - | 92 W/m² | - |
| 1778005915 | 17.22° C | 99% | 1003 hPa | 0 mm | - | 102 W/m² | - |
| 1778005611 | 17.22° C | 99% | 1003 hPa | 1.27 mm | - | 144 W/m² | - |
| 1778005309 | 17.22° C | 99% | 1003 hPa | 1.27 mm | - | 159 W/m² | - |
| 1778005004 | 16.67° C | 99% | 1002.8 hPa | 0 mm | - | 115 W/m² | - |
| 1778004702 | 17.22° C | 99% | 1003.4 hPa | 1.78 mm | - | 127 W/m² | - |
| 1778004398 | 16.67° C | 99% | 1003.4 hPa | 1.78 mm | - | 127 W/m² | - |
| 1778004096 | 16.67° C | 99% | 1003.4 hPa | 1.78 mm | - | 146 W/m² | - |
| 1778003792 | 16.67° C | 99% | 1003.5 hPa | 1.78 mm | - | 181 W/m² | - |
| 1778003488 | 16.67° C | 99% | 1003.6 hPa | 0 mm | - | 111 W/m² | - |
| 1778003185 | 16.67° C | 99% | 1003.7 hPa | 0 mm | - | 107 W/m² | - |
| 1778002881 | 16.67° C | 99% | 1003.6 hPa | 0 mm | - | 153 W/m² | - |
| 1778002578 | 16.67° C | 99% | 1003.8 hPa | 1.27 mm | - | 128 W/m² | - |
| 1778002274 | 16.67° C | 99% | 1003.9 hPa | 1.27 mm | - | 158 W/m² | - |
| 1778001972 | 16.67° C | 99% | 1003.7 hPa | 0 mm | - | 175 W/m² | - |
| 1778001669 | 16.67° C | 99% | 1003.8 hPa | 0 mm | - | 91 W/m² | - |
| 1778001363 | 16.11° C | 99% | 1004 hPa | 0 mm | - | 121 W/m² | - |
| 1778001061 | 16.67° C | 99% | 1004.1 hPa | 0 mm | - | 40 W/m² | - |
| 1778000757 | 16.67° C | 99% | 1003.8 hPa | 1.78 mm | - | 106 W/m² | - |
| 1778000454 | 16.67° C | 99% | 1003.9 hPa | 6.1 mm | - | 81 W/m² | - |
| 1778000149 | 16.67° C | 99% | 1003.9 hPa | 4.32 mm | - | 63 W/m² | - |
* Rain latest hour (hover to see other rain measurements)
** Current wind speed in m/s (hover to see current wind gust speed)